SL-8 DEB, 39693

Orbit data source: Space-Track

SL-8 DEB, 39693 is space debris in LEO originally from a launch on Tue, 12 Feb 1991 UTC launched from the Plesetsk Missile And Space Complex (PKMTR). Debris objects in space refer to the collection of defunct objects orbiting the Earth. Examples of debris include non-operational satellites, rocket bodies, and fragments generated from explosions, collisions, or faulty payload assembly.

Loading next visibility...
Identifier
39693, 1991-009DG
Orbit
LEO
Country
Flag of CISCIS
Related business
Manufacturer
Unknown
Mission
Spacecraft
Bus & Motor
Unknown
Mass
Unknown
Launch date (UTC)
1991-02-12 (35 years ago)
Launch vehicle
Unknown
Launch site
Plesetsk Missile And Space Complex (PKMTR)
Object type
Payload
Rocket body
Debris
Shape & HBR
Unknown shape, 0.1 m
Radar Cross Section
Medium (>0.1 m² and <1 m²)

Expand to show TLE details & history
Last TLE update: 10 months ago

TLE from 10 months ago
0 SL-8 DEB
1 39693U 91009DG  25246.00469868 -.00000011  00000-0  41412-4 0  9998
2 39693  74.0364 159.8593 0129811 316.4018  42.6815 12.20925747507581
Epoch: 2025-09-03T00:06Z
TLE epoch observation values (Epoch: 2025-09-03T00:06:45.965Z)
Latitude
-0.00006°
Longitude
175.77996°
Altitude
1,515.448 km
Speed
7.141 km/s
True Right ascension
10h 39m 26s
True Declination
0° 00' 00"
Sunlit
Object was in daylight at epoch
Visualization orbit readout
Latitude
Unknown
Longitude
Unknown
Altitude
Unknown
Speed
Unknown
Apparent Right ascension
Unknown
Apparent Declination
Unknown
Sunlit
N/A
Visualization observer readout
Local Sidereal Time
00:50:18
Azimuth
Unknown
Elevation
Unknown
Doppler factor
Unknown
Orbital elements
Apogee altitude
1,689.768 km
Perigee altitude
1,482.992 km
Semi-major axis
7,964.517 km
Eccentricity
0.01298
Inclination
74.0364°
RAAN
159.8593°
Arg. of periapsis
316.4018°
True anomaly
43.70204°
Mean anomaly
42.6815°
Eccentric anomaly
43.19055°
Mean motion
3.05354 °/min
Orbital period
117.9 mins
BSTAR
0.000041412
Loading maneuver chart data...
Computing Atmospheric mass density...
Loading historical data...
Loading historical data...
Loading historical data...
Loading historical data...
Loading historical data...
Loading historical data...
Loading historical data...

Documentation

Showing up to 5 results
|